TimeEDT,TemperatureF,Dew PointF,Humidity,Sea Level PressureIn,VisibilityMPH,Wind Direction,Wind SpeedMPH,Gust SpeedMPH,PrecipitationIn,Events,Conditions,WindDirDegrees,DateUTC
12:15 AM,50.2,45.5,84,30.15,5.0,East,8.1,-,0.08,Rain-Thunderstorm,Heavy Thunderstorms and Rain,80,2013-04-17 04:15:00
12:35 AM,50.0,45.5,85,30.20,7.0,NNE,8.1,-,0.10,Rain-Thunderstorm,Light Thunderstorms and Rain,20,2013-04-17 04:35:00
12:55 AM,49.3,45.0,85,30.18,7.0,NE,10.4,-,0.10,Thunderstorm,Thunderstorm,40,2013-04-17 04:55:00
1:15 AM,49.3,44.4,83,30.19,10.0,NE,6.9,-,N/A,Thunderstorm,Overcast,40,2013-04-17 05:15:00
1:35 AM,49.3,44.6,84,30.21,7.0,NNE,4.6,-,0.03,Rain-Thunderstorm,Heavy Thunderstorms and Rain,20,2013-04-17 05:35:00
1:55 AM,48.7,44.6,86,30.20,7.0,NE,5.8,-,0.20,Rain-Thunderstorm,Thunderstorms and Rain,50,2013-04-17 05:55:00
2:15 AM,48.6,44.2,85,30.21,10.0,North,6.9,-,N/A,Thunderstorm,Overcast,10,2013-04-17 06:15:00
2:35 AM,48.4,43.7,84,30.23,10.0,North,3.5,-,N/A,Thunderstorm,Thunderstorm,350,2013-04-17 06:35:00
2:55 AM,47.7,43.0,84,30.20,7.0,NE,10.4,-,0.11,Rain-Thunderstorm,Light Thunderstorms and Rain,40,2013-04-17 06:55:00
3:15 AM,47.5,42.1,82,30.19,10.0,NE,8.1,-,0.01,Rain-Thunderstorm,Light Thunderstorms and Rain,50,2013-04-17 07:15:00
3:35 AM,47.3,42.3,83,30.19,10.0,NE,8.1,-,0.03,Rain-Thunderstorm,Rain,50,2013-04-17 07:35:00
3:55 AM,47.3,42.4,83,30.20,10.0,NE,8.1,-,0.03,,Overcast,50,2013-04-17 07:55:00
4:15 AM,47.3,42.3,83,30.21,10.0,East,8.1,-,N/A,Thunderstorm,Overcast,80,2013-04-17 08:15:00
4:35 AM,47.3,41.9,82,30.21,10.0,ENE,9.2,-,N/A,,Overcast,60,2013-04-17 08:35:00
4:55 AM,48.2,41.0,76,30.19,10.0,ENE,9.2,16.1,N/A,Thunderstorm,Thunderstorm,60,2013-04-17 08:55:00
5:35 AM,47.7,42.1,81,30.19,10.0,East,8.1,-,N/A,Thunderstorm,Overcast,80,2013-04-17 09:35:00
5:55 AM,48.0,42.4,81,30.19,10.0,ENE,6.9,-,N/A,Thunderstorm,Overcast,70,2013-04-17 09:55:00
6:15 AM,48.2,42.8,82,30.19,10.0,East,8.1,-,N/A,,Overcast,80,2013-04-17 10:15:00
6:35 AM,48.4,42.8,81,30.19,10.0,NE,11.5,-,N/A,,Overcast,50,2013-04-17 10:35:00
6:55 AM,48.2,42.1,79,30.17,10.0,ENE,12.7,-,N/A,Thunderstorm,Overcast,60,2013-04-17 10:55:00
7:15 AM,48.2,41.9,79,30.17,10.0,ENE,8.1,-,N/A,Thunderstorm,Overcast,70,2013-04-17 11:15:00
7:35 AM,48.2,41.9,79,30.16,10.0,East,12.7,17.3,N/A,Thunderstorm,Mostly Cloudy,80,2013-04-17 11:35:00
7:55 AM,48.2,41.9,79,30.18,10.0,ENE,9.2,17.3,N/A,,Mostly Cloudy,70,2013-04-17 11:55:00
8:15 AM,48.6,42.1,78,30.21,10.0,East,8.1,-,N/A,Thunderstorm,Overcast,80,2013-04-17 12:15:00
8:35 AM,49.1,42.1,77,30.19,10.0,East,10.4,-,N/A,,Overcast,90,2013-04-17 12:35:00
8:55 AM,49.1,42.6,78,30.19,10.0,East,10.4,-,N/A,,Overcast,90,2013-04-17 12:55:00
9:15 AM,49.5,42.8,78,30.19,10.0,East,10.4,-,N/A,,Overcast,80,2013-04-17 13:15:00
9:35 AM,50.0,43.3,78,30.20,10.0,East,9.2,-,N/A,,Overcast,90,2013-04-17 13:35:00
10:15 AM,52.0,45.0,77,30.17,10.0,East,11.5,-,N/A,,Overcast,90,2013-04-17 14:15:00
10:35 AM,53.1,45.5,75,30.16,10.0,ESE,15.0,20.7,N/A,,Overcast,110,2013-04-17 14:35:00
10:55 AM,53.6,46.6,77,30.16,10.0,East,10.4,-,N/A,,Overcast,100,2013-04-17 14:55:00
11:15 AM,53.8,46.8,77,30.17,10.0,East,8.1,-,N/A,,Overcast,100,2013-04-17 15:15:00
11:35 AM,54.5,47.8,78,30.16,10.0,East,8.1,-,N/A,,Overcast,100,2013-04-17 15:35:00
11:55 AM,55.6,48.9,78,30.15,10.0,East,8.1,16.1,N/A,,Overcast,100,2013-04-17 15:55:00
12:15 PM,56.5,49.6,78,30.14,10.0,East,6.9,-,N/A,,Overcast,100,2013-04-17 16:15:00
12:35 PM,59.0,51.6,76,30.14,10.0,ESE,11.5,16.1,N/A,,Overcast,110,2013-04-17 16:35:00
12:55 PM,59.4,52.3,78,30.13,10.0,ESE,12.7,17.3,N/A,,Overcast,120,2013-04-17 16:55:00
1:15 PM,59.7,53.1,79,30.12,7.0,ESE,8.1,-,N/A,,Overcast,120,2013-04-17 17:15:00
1:35 PM,60.3,53.6,79,30.12,10.0,ESE,9.2,-,N/A,,Overcast,120,2013-04-17 17:35:00
1:55 PM,61.7,54.7,78,30.11,10.0,SE,9.2,-,N/A,,Overcast,130,2013-04-17 17:55:00
2:15 PM,63.1,56.1,78,30.09,10.0,SE,12.7,-,N/A,,Overcast,130,2013-04-17 18:15:00
2:35 PM,65.7,58.1,77,30.08,10.0,ESE,10.4,-,N/A,,Mostly Cloudy,120,2013-04-17 18:35:00
2:55 PM,66.9,58.8,75,30.08,10.0,SE,12.7,-,N/A,,Overcast,140,2013-04-17 18:55:00
3:15 PM,68.2,59.9,75,30.07,10.0,SE,10.4,-,N/A,,Overcast,140,2013-04-17 19:15:00
3:35 PM,68.9,60.8,75,30.06,10.0,SSE,9.2,-,N/A,,Overcast,150,2013-04-17 19:35:00
3:55 PM,69.8,61.0,73,30.04,10.0,SE,10.4,-,N/A,,Scattered Clouds,130,2013-04-17 19:55:00
4:35 PM,71.8,62.6,73,30.00,10.0,SE,12.7,17.3,N/A,,Mostly Cloudy,130,2013-04-17 20:35:00
4:55 PM,71.8,63.1,74,29.99,10.0,SE,10.4,-,N/A,,Overcast,130,2013-04-17 20:55:00
5:15 PM,73.0,64.0,73,29.99,7.0,SE,17.3,-,N/A,,Overcast,140,2013-04-17 21:15:00
5:35 PM,73.6,64.2,72,29.96,7.0,SSE,17.3,-,N/A,,Mostly Cloudy,150,2013-04-17 21:35:00
5:55 PM,73.8,64.6,73,29.97,10.0,SSE,15.0,-,N/A,,Scattered Clouds,160,2013-04-17 21:55:00
6:15 PM,72.9,64.4,75,29.98,10.0,SE,13.8,-,N/A,,Mostly Cloudy,140,2013-04-17 22:15:00
6:35 PM,72.9,64.4,75,29.98,10.0,SSE,17.3,-,N/A,,Mostly Cloudy,150,2013-04-17 22:35:00
6:55 PM,72.7,64.4,75,29.98,10.0,South,12.7,23.0,N/A,Thunderstorm,Mostly Cloudy,170,2013-04-17 22:55:00
7:15 PM,72.7,61.5,68,29.96,10.0,South,15.0,20.7,N/A,,Scattered Clouds,170,2013-04-17 23:15:00
7:35 PM,70.3,59.0,67,29.94,10.0,SSE,17.3,20.7,N/A,,Clear,160,2013-04-17 23:35:00
7:55 PM,69.4,60.1,72,29.93,10.0,SSE,10.4,17.3,N/A,,Clear,160,2013-04-17 23:55:00
8:15 PM,69.3,61.0,75,29.92,10.0,South,13.8,20.7,N/A,,Clear,170,2013-04-18 00:15:00
8:35 PM,69.8,61.3,74,29.91,10.0,South,18.4,27.6,N/A,,Light Drizzle,170,2013-04-18 00:35:00
8:55 PM,69.1,61.2,76,29.91,10.0,South,15.0,-,N/A,Rain-Thunderstorm,Light Thunderstorms and Rain,190,2013-04-18 00:55:00
9:15 PM,68.4,61.3,78,29.92,10.0,South,11.5,-,N/A,,Mostly Cloudy,190,2013-04-18 01:15:00
9:35 PM,68.2,61.0,78,29.93,10.0,South,10.4,-,N/A,,Scattered Clouds,180,2013-04-18 01:35:00
9:55 PM,68.0,60.8,78,29.93,10.0,SSE,9.2,-,N/A,,Clear,160,2013-04-18 01:55:00
10:15 PM,67.5,60.6,79,29.94,10.0,SSE,9.2,-,N/A,,Clear,160,2013-04-18 02:15:00
10:35 PM,67.3,60.1,78,29.94,10.0,SSE,6.9,-,N/A,,Clear,150,2013-04-18 02:35:00
10:55 PM,66.4,60.1,80,29.93,10.0,SSE,9.2,-,N/A,,Scattered Clouds,160,2013-04-18 02:55:00
11:15 PM,65.8,59.9,81,29.92,10.0,SE,9.2,-,N/A,,Scattered Clouds,140,2013-04-18 03:15:00
11:35 PM,65.8,59.7,81,29.91,10.0,SE,8.1,-,N/A,,Scattered Clouds,130,2013-04-18 03:35:00
11:55 PM,65.5,59.2,80,29.91,10.0,SE,8.1,-,N/A,,Clear,130,2013-04-18 03:55:00